Погода в Орехове

Россия / Томская область     57°13′23″N   86°41′09″E
темп.,
°C
ветер,
м/с
пор.,
м/с
влажн.,
%
обл.,
%
осадки,
мм/ч
давл.,
гПа
погр.,
м
24 июля, сб
сб2401:00+15всв387753 0.0 1008131
04:00+14всв398310 0.0 1008146
07:00+16всв311740 0.0 1008309
10:00+24всв47510 0.0 1006634
13:00+28в35360 0.0 10061433
16:00+30вюв3431100 0.0 10051813
19:00+28в244873 0.0 1005163
22:00+21в226481 0.0 100627
25 июля, вс
вс2501:00+19в237630 0.0 100651
04:00+17в238363 0.0 100647
07:00+19в257958 0.0 1007127
10:00+25вюв245584 0.0 1006510
13:00+29вюв234214 0.0 10051262
16:00+31юв233661 0.0 10041931
19:00+28юз125990 0.0 100470
22:00+22ююз1187100 0.1 100311
26 июля, пн
пн2601:00+20ююз229578 0.6 100335
04:00+19ююв2396100 0.0 100254
07:00+20ююв269373 0.0 1001185
10:00+24ююв3566100 0.0 1000480
13:00+28ю4650100 0.0 9991411
16:00+29ю4648100 0.0 9981875
19:00+28юв375944 0.0 996952
22:00+18юв2597100 13.6 998141
27 июля, вт
вт2701:00+17зюз5997100 13.8 998749
04:00+14зюз51094100 0.1 1000717
07:00+13юз5979100 0.1 10021156
10:00+13юз5975100 0.0 1004962
13:00+13зюз5974100 0.1 10051132
16:00+14зюз4968100 0.1 10071157
19:00+15з4106980 0.1 10071330
22:00+11з4107086 0.0 10091005
28 июля, ср
ср2801:00+10з3108028 0.0 1010609
04:00+11з287067 0.0 1011542
07:00+11юз247666 0.0 1012167
10:00+12ююз2468100 0.0 1013354
13:00+16ююз345986 0.0 1013993
16:00+19зюз244583 0.0 10122132
19:00+15юз1177100 0.1 101221
22:00+14ююв1175100 0.0 101312